Zurück zum Katalog

SL-12 DEB

LostHEO
NORAD 29430·DEBRIS·🇷🇺 Russia

Gestartet May 31, 1989 von Baikonur Cosmodrome

Loading…

Nächste Überflüge (nächste 24 Stunden)

TLE

VeraltetSource: Space-Track

Epoche: May 4, 2012, 14:05 UTC

1 29430U 89039CD  12125.58706641 +.00005026 +00000-0 +32469-1 0  9993
2 29430 064.5463 184.3069 4906246 319.6713 012.8060 05.29539133096675

Verfolge SL-12 DEB in Echtzeit mit AllMySat

Download on the App Store